File timestamp: Sun Sep 11 01:00:00 2016, Internal temp: 16.4031982421875
1473555601, 0.0218264423310757, -0.139411330223083, 0.163567870855331, 32139, 31386, 23444, 86.3245697021484
1473555602, 0.0211189426481724, -0.139178887009621, 0.163207054138184, 32143, 31380, 23442, NaN
1473555603, 0.0201921425759792, -0.13924802839756, 0.163199245929718, 32147, 31399, 23446, NaN
1473555604, 0.0190564095973969, -0.139774233102798, 0.163437828421593, 32152, 31399, 23421, NaN
1473555605, 0.0176297035068274, -0.139855980873108, 0.163446664810181, 32150, 31393, 23439, NaN
1473555606, 0.0173820275813341, -0.13870744407177, 0.162676572799683, 32147, 31384, 23429, NaN
1473555607, 0.0202332753688097, -0.139368429780006, 0.161991730332375, 32145, 31389, 23439, NaN
1473555608, 0.0273265615105629, -0.139376237988472, 0.161928161978722, 32152, 31393, 23433, NaN
1473555609, 0.0394029952585697, -0.139066129922867, 0.162341758608818, 32154, 31384, 23428, NaN
1473555610, 0.0542803704738617, -0.139391452074051, 0.162723869085312, 32148, 31393, 23445, NaN
1473555611, 0.0467328317463398, -0.139232039451599, 0.162905097007751, 32149, 31387, 23433, NaN
1473555612, 0.0314220376312733, -0.139638438820839, 0.163153082132339, 32144, 31400, 23440, NaN
1473555613, 0.0181431323289871, -0.13920858502388, 0.162796065211296, 32146, 31386, 23437, NaN
1473555614, 0.00677153933793306, -0.139599815011024, 0.162684381008148, 32156, 31397, 23427, NaN
1473555615, -0.00282125687226653, -0.139672622084618, 0.162732481956482, 32144, 31386, 23437, NaN
1473555616, -0.010766476392746, -0.140209287405014, 0.163256227970123, 32147, 31390, 23437, NaN
1473555617, -0.0171967837959528, -0.139415711164474, 0.163048669695854, 32147, 31385, 23433, NaN
1473555618, -0.0222450327128172, -0.139283463358879, 0.162963643670082, 32154, 31381, 23426, NaN
1473555619, -0.026043051853776, -0.139027208089828, 0.163048356771469, 32148, 31384, 23438, NaN
1473555620, -0.0287205036729574, -0.138961374759674, 0.162076160311699, 32147, 31394, 23420, NaN
1473555621, -0.0304038189351559, -0.13901923596859, 0.161977052688599, 32157, 31382, 23423, NaN
1473555622, -0.0312152449041605, -0.139043197035789, 0.161639153957367, 32154, 31380, 23423, NaN
1473555623, -0.0312719903886318, -0.138160154223442, 0.161110013723373, 32143, 31387, 23431, NaN
1473555624, -0.0306855142116547, -0.137820184230804, 0.161990344524384, 32134, 31386, 23437, NaN
1473555625, -0.029560899361968, -0.137398943305016, 0.162300407886505, 32149, 31385, 23436, NaN
1473555626, -0.0279963836073875, -0.136649444699287, 0.163120061159134, 32152, 31382, 23432, NaN
1473555627, -0.0260829981416464, -0.135939031839371, 0.163050100207329, 32156, 31391, 23431, NaN
1473555628, -0.0239043142646551, -0.135264173150063, 0.163095146417618, 32149, 31383, 23445, NaN
1473555629, -0.0215363129973412, -0.134777843952179, 0.163262233138084, 32151, 31381, 23434, NaN
1473555629, -0.0190473478287458, -0.134367123246193, 0.163073807954788, 32128, 31378, 23444, NaN
1473555630.004, -0.0164982043206692, -0.133985355496407, 0.163145020604134, 32140, 31391, 23442, NaN
1473555631.004, -0.0139422481879592, -0.13434624671936, 0.162821382284164, 32148, 31378, 23426, NaN
1473555632.004, -0.0114256413653493, -0.134099394083023, 0.162384286522865, 32150, 31400, 23433, NaN
1473555633.004, -0.00898762885481119, -0.133836835622787, 0.161668807268143, 32144, 31380, 23422, NaN
1473555633.004, -0.0066608777269721, -0.133121758699417, 0.162536591291428, 32143, 31382, 23428, NaN
1473555634.01, -0.00447186222299933, -0.132949978113174, 0.162547960877419, 32147, 31377, 23433, NaN
1473555635.01, -0.00244128215126693, -0.132937356829643, 0.16251939535141, 32131, 31380, 23446, NaN
1473555636.01, -0.000584510911721736, -0.132587879896164, 0.162524864077568, 32145, 31377, 23430, NaN
1473555637.01, 0.00108794018160552, -0.132968991994858, 0.1620102673769, 32155, 31392, 23439, NaN
1473555637.01, 0.00256994855590165, -0.133135348558426, 0.161914452910423, 32141, 31382, 23442, NaN
1473555638.016, 0.00385930319316685, -0.132374048233032, 0.161603599786758, 32136, 31392, 23439, NaN
1473555639.016, 0.00495723215863109, -0.131773501634598, 0.161436900496483, 32138, 31386, 23446, NaN
1473555640.016, 0.0058679417707026, -0.131561443209648, 0.161791667342186, 32156, 31393, 23434, NaN
1473555641.016, 0.00654506776481867, -0.131750419735909, 0.161542817950249, 32135, 31385, 23437, NaN
1473555641.016, 0.00677282176911831, -0.131318792700768, 0.160638704895973, 32161, 31381, 23423, NaN
1473555642.024, 0.00766132026910782, -0.131132170557976, 0.161011263728142, 32144, 31381, 23429, NaN
1473555643.024, 0.00789566524326801, -0.130712524056435, 0.161110207438469, 32148, 31387, 23437, NaN
1473555644.024, 0.00799451023340225, -0.131087467074394, 0.161235839128494, 32146, 31373, 23436, NaN
1473555645.024, 0.00797130726277828, -0.13170337677002, 0.160625159740448, 32142, 31382, 23435, NaN
1473555645.024, 0.00783985480666161, -0.132047578692436, 0.161494418978691, 32151, 31389, 23427, NaN
1473555646.032, 0.00761404214426875, -0.132091775536537, 0.161325916647911, 32148, 31390, 23430, NaN
1473555647.032, 0.00730761419981718, -0.131541967391968, 0.16141377389431, 32150, 31389, 23439, NaN
1473555648.032, 0.00693397549912333, -0.132064089179039, 0.161350205540657, 32153, 31378, 23420, NaN
1473555649.032, 0.00650602206587791, -0.131736844778061, 0.1617711186409, 32141, 31375, 23433, NaN
1473555649.032, 0.00603600032627583, -0.130378529429436, 0.162232264876366, 32152, 31389, 23443, NaN
1473555650.04, 0.00553539348766208, -0.130963787436485, 0.16255895793438, 32160, 31383, 23420, NaN
1473555651.04, 0.00501483492553234, -0.130936250090599, 0.162863805890083, 32140, 31386, 23428, NaN
1473555652.03, 0.00448404578492045, -0.131012573838234, 0.162495747208595, 32144, 31378, 23429, NaN
1473555653.03, 0.0039517916738987, -0.131297379732132, 0.162354245781898, 32146, 31384, 23432, NaN
1473555654.03, 0.00342586124315858, -0.13006304204464, 0.162596493959427, 32155, 31395, 23432, NaN
1473555655.03, 0.00291306176222861, -0.129180327057838, 0.162579923868179, 32147, 31373, 23426, 86.3113555908203
1473555656.03, 0.00241923076100647, -0.129176899790764, 0.162729158997536, 32154, 31388, 23428, NaN
1473555657.03, 0.00194925989490002, -0.129798874258995, 0.163109809160233, 32154, 31386, 23434, NaN
1473555658.03, 0.00150713208131492, -0.129450902342796, 0.163493365049362, 32154, 31380, 23446, NaN
1473555659.03, 0.00109596631955355, -0.129347428679466, 0.164506196975708, 32157, 31390, 23435, NaN
1473555660.03, 0.000718072114977986, -0.129138395190239, 0.164243444800377, 32148, 31391, 23438, NaN
1473555661.03, 0.000375007890397683, -0.129734143614769, 0.164043992757797, 32148, 31379, 23443, NaN
1473555662.03, 6.76452036714181e-05, -0.130760937929153, 0.163474529981613, 32158, 31383, 23433, NaN
1473555663.03, 0.00315359095111489, -0.131287127733231, 0.163442566990852, 32146, 31381, 23434, NaN
1473555664.03, 0.0160773508250713, -0.131977885961533, 0.163950949907303, 32148, 31398, 23443, NaN
1473555665.03, 0.0365607440471649, -0.132174402475357, 0.164053082466125, 32155, 31387, 23432, NaN
1473555666.03, 0.0623064413666725, -0.132242739200592, 0.164360582828522, 32145, 31383, 23438, NaN
1473555667.03, 0.0913404300808907, -0.132364884018898, 0.164315536618233, 32156, 31398, 23417, NaN
1473555668.03, 0.121987745165825, -0.132953032851219, 0.164861232042313, 32151, 31381, 23433, NaN
1473555669.03, 0.152848437428474, -0.133067280054092, 0.163983792066574, 32159, 31382, 23434, NaN
1473555670.03, 0.182773903012276, -0.133943513035774, 0.163614436984062, 32150, 31387, 23445, NaN
1473555671.03, 0.210843667387962, -0.133495092391968, 0.163841754198074, 32146, 31394, 23437, NaN
1473555672.03, 0.236342862248421, -0.132973968982697, 0.164021909236908, 32160, 31387, 23434, NaN
1473555673.03, 0.258740246295929, -0.132309645414352, 0.164518788456917, 32156, 31374, 23434, NaN
1473555674.03, 0.277667284011841, -0.131948009133339, 0.164826467633247, 32153, 31384, 23439, NaN
1473555675.03, 0.292897969484329, -0.132896929979324, 0.164832979440689, 32143, 31390, 23432, NaN
1473555676.03, 0.304329693317413, -0.132381290197372, 0.164866894483566, 32146, 31393, 23428, NaN
1473555677.03, 0.31196528673172, -0.132346048951149, 0.164803564548492, 32162, 31379, 23431, NaN
1473555678.03, 0.315779119729996, -0.132665455341339, 0.165644228458405, 32153, 31403, 23437, NaN
1473555679.03, 0.314723491668701, -0.132484868168831, 0.166067346930504, 32148, 31393, 23429, NaN
1473555680.03, 0.308992862701416, -0.132676601409912, 0.166506186127663, 32147, 31402, 23439, NaN
1473555681.03, 0.298783898353577, -0.132210522890091, 0.16643550992012, 32147, 31379, 23437, NaN
1473555682.03, 0.286338001489639, -0.131368026137352, 0.166548490524292, 32153, 31385, 23433, NaN
1473555683.03, 0.270952373743057, -0.131530225276947, 0.166180834174156, 32156, 31388, 23430, NaN
1473555684.03, 0.254327148199081, -0.131999939680099, 0.165755227208138, 32145, 31386, 23445, NaN
1473555685.03, 0.236653625965118, -0.131342962384224, 0.165911510586739, 32144, 31386, 23442, NaN
1473555686.03, 0.218393117189407, -0.1308274269104, 0.16658328473568, 32143, 31387, 23432, NaN
1473555687.03, 0.199817210435867, -0.130852788686752, 0.166655883193016, 32133, 31396, 23446, NaN
1473555687.03, 0.182103753089905, -0.131013363599777, 0.166995197534561, 32156, 31388, 23424, NaN
1473555688.036, 0.165094658732414, -0.130738705396652, 0.16631256043911, 32145, 31385, 23431, NaN
1473555689.036, 0.148605391383171, -0.130890056490898, 0.166349306702614, 32149, 31384, 23434, NaN
1473555690.036, 0.132244497537613, -0.130815804004669, 0.1668381690979, 32140, 31387, 23439, NaN
1473555691.036, 0.1167993247509, -0.130455836653709, 0.166201800107956, 32146, 31389, 23434, NaN
1473555691.036, 0.102722153067589, -0.130698800086975, 0.16656981408596, 32144, 31381, 23429, NaN
1473555692.042, 0.0899902656674385, -0.130879193544388, 0.166763439774513, 32154, 31381, 23425, NaN
1473555693.042, 0.0784546881914139, -0.130972161889076, 0.166662842035294, 32139, 31381, 23440, NaN
1473555694.042, 0.0681525841355324, -0.130518421530724, 0.166413694620132, 32154, 31407, 23425, NaN
1473555695.042, 0.0588159151375294, -0.13098506629467, 0.16560335457325, 32146, 31387, 23431, NaN
1473555695.042, 0.0503391958773136, -0.130888968706131, 0.164845824241638, 32151, 31388, 23443, NaN
1473555696.048, 0.0428508147597313, -0.131133407354355, 0.165208086371422, 32148, 31381, 23428, NaN
1473555697.048, 0.0363744720816612, -0.131984934210777, 0.165613234043121, 32150, 31380, 23439, NaN
1473555698.048, 0.0303155854344368, -0.132512897253036, 0.165823921561241, 32136, 31374, 23433, NaN
1473555699.048, 0.025162210687995, -0.132821321487427, 0.164563551545143, 32152, 31388, 23434, NaN
1473555699.048, 0.0202831942588091, -0.132863566279411, 0.164780244231224, 32136, 31382, 23439, NaN
1473555700.056, 0.0151455588638783, -0.132430627942085, 0.163545191287994, 32150, 31381, 23437, NaN
1473555701.056, 0.0103484503924847, -0.132167860865593, 0.163013681769371, 32150, 31393, 23418, NaN
1473555702.056, 0.00646109180524945, -0.13294692337513, 0.162758931517601, 32153, 31392, 23420, NaN
1473555703.056, 0.00286836270242929, -0.132543787360191, 0.161815404891968, 32138, 31369, 23439, NaN
1473555703.056, -0.000360574835212901, -0.132230147719383, 0.161359950900078, 32149, 31377, 23438, NaN
1473555704.064, 0.00196979031898081, -0.132736161351204, 0.161250114440918, 32159, 31382, 23434, NaN
1473555705.064, 0.010761403478682, -0.133618324995041, 0.160451158881187, 32143, 31383, 23443, NaN
1473555706.064, 0.0236037615686655, -0.133628740906715, 0.159798815846443, 32142, 31384, 23434, NaN
1473555707.064, 0.0395901836454868, -0.134315758943558, 0.159604296088219, 32143, 31399, 23446, NaN
1473555707.064, 0.0572281144559383, -0.13484114408493, 0.159056514501572, 32159, 31374, 23440, NaN
1473555708.072, 0.0764448344707489, -0.134115889668465, 0.159615248441696, 32147, 31382, 23427, NaN
1473555709.072, 0.0952575728297234, -0.134918138384819, 0.1593107432127, 32144, 31380, 23441, 88.1948623657227
1473555710.062, 0.11303224414587, -0.134932771325111, 0.159202232956886, 32149, 31394, 23434, NaN
1473555711.062, 0.129771560430527, -0.134890928864479, 0.159610614180565, 32144, 31378, 23433, NaN
1473555712.062, 0.145222440361977, -0.13628077507019, 0.159632757306099, 32156, 31391, 23428, NaN
1473555713.062, 0.158409759402275, -0.136963710188866, 0.159100204706192, 32146, 31391, 23437, NaN
1473555714.062, 0.169517651200294, -0.136511221528053, 0.159255981445312, 32137, 31387, 23449, NaN
1473555715.062, 0.178322419524193, -0.13690210878849, 0.159330636262894, 32155, 31392, 23428, NaN
1473555716.062, 0.185226678848267, -0.136282846331596, 0.159514531493187, 32143, 31393, 23432, NaN
1473555717.062, 0.189203381538391, -0.135639443993568, 0.160367101430893, 32136, 31382, 23435, NaN
1473555718.062, 0.190984204411507, -0.136100217700005, 0.160269513726234, 32144, 31388, 23436, NaN
1473555719.062, 0.19084145128727, -0.136160969734192, 0.160297319293022, 32145, 31387, 23436, NaN
1473555720.062, 0.188467487692833, -0.135917767882347, 0.160483926534653, 32140, 31394, 23440, NaN
1473555721.062, 0.184229478240013, -0.136262148618698, 0.16144323348999, 32153, 31386, 23450, NaN
1473555722.062, 0.178787484765053, -0.136353224515915, 0.161667466163635, 32150, 31377, 23437, NaN
1473555723.062, 0.171617850661278, -0.136099755764008, 0.16105492413044, 32155, 31379, 23446, NaN
1473555724.062, 0.162901178002357, -0.135695472359657, 0.161073535680771, 32168, 31376, 23426, NaN
1473555725.062, 0.153998598456383, -0.135796949267387, 0.16047303378582, 32151, 31378, 23427, NaN
1473555726.062, 0.143483683466911, -0.135327324271202, 0.160747975111008, 32149, 31386, 23439, NaN
1473555727.062, 0.132294908165932, -0.135982498526573, 0.16076797246933, 32145, 31387, 23442, NaN
1473555728.062, 0.120768129825592, -0.136025682091713, 0.160995975136757, 32142, 31375, 23440, NaN
1473555729.062, 0.109155021607876, -0.13591967523098, 0.161863431334496, 32135, 31375, 23442, NaN
1473555730.062, 0.0976572707295418, -0.135553926229477, 0.162145152688026, 32158, 31392, 23442, NaN
1473555731.062, 0.0863629579544067, -0.134928822517395, 0.162004724144936, 32149, 31381, 23423, NaN
1473555732.062, 0.0764024034142494, -0.135205805301666, 0.162182733416557, 32145, 31374, 23429, NaN
1473555733.062, 0.0726460963487625, -0.135614812374115, 0.162743672728539, 32153, 31382, 23423, NaN
1473555734.062, 0.0782953426241875, -0.13674184679985, 0.162944927811623, 32151, 31398, 23435, NaN
1473555735.062, 0.0941872894763947, -0.136926129460335, 0.163799196481705, 32129, 31392, 23440, NaN
1473555736.062, 0.120019443333149, -0.135685831308365, 0.164760187268257, 32151, 31389, 23433, NaN
1473555737.062, 0.117290861904621, -0.136011496186256, 0.164771094918251, 32156, 31385, 23427, NaN
1473555738.062, 0.082237184047699, -0.135635361075401, 0.164236053824425, 32143, 31383, 23454, NaN
1473555739.062, 0.0517732761800289, -0.13598906993866, 0.16410206258297, 32149, 31386, 23431, NaN
1473555740.062, 0.0256115179508924, -0.136157631874084, 0.163583368062973, 32137, 31389, 23448, NaN
1473555741.062, 0.00345775973983109, -0.136415049433708, 0.163045182824135, 32146, 31374, 23437, NaN
1473555742.062, -0.0149862756952643, -0.136914849281311, 0.163006752729416, 32144, 31395, 23433, NaN
1473555743.062, -0.0300205182284117, -0.136723339557648, 0.161695033311844, 32145, 31389, 23427, NaN
1473555744.062, -0.0419440530240536, -0.136818900704384, 0.161479040980339, 32150, 31392, 23431, NaN
1473555745.062, -0.0510526560246944, -0.13706436753273, 0.160628333687782, 32152, 31387, 23431, NaN
1473555745.062, -0.0576364919543266, -0.137303963303566, 0.160879284143448, 32146, 31380, 23436, NaN
1473555746.068, -0.0619779117405415, -0.137596264481544, 0.160958603024483, 32144, 31383, 23436, NaN
1473555747.068, -0.064349502325058, -0.137316837906837, 0.161254778504372, 32151, 31384, 23432, NaN
1473555748.068, -0.0650123432278633, -0.136475369334221, 0.160274639725685, 32159, 31396, 23431, NaN
1473555749.068, -0.0642144903540611, -0.137548044323921, 0.160604953765869, 32155, 31391, 23432, NaN
1473555749.068, -0.0621897354722023, -0.137357965111732, 0.161380156874657, 32152, 31396, 23432, NaN
1473555750.074, -0.0591565929353237, -0.136443972587585, 0.161579102277756, 32150, 31394, 23437, NaN
1473555751.074, -0.0553175695240498, -0.135394841432571, 0.161822974681854, 32154, 31384, 23440, NaN
1473555752.074, -0.0508586578071117, -0.134731322526932, 0.161755442619324, 32141, 31385, 23441, NaN
1473555753.074, -0.0459490716457367, -0.134173765778542, 0.161299169063568, 32145, 31389, 23435, NaN
1473555753.074, -0.040741179138422, -0.134502649307251, 0.161759212613106, 32154, 31394, 23434, NaN
1473555754.08, -0.0353706628084183, -0.133652046322823, 0.161112263798714, 32147, 31389, 23433, NaN
1473555755.08, -0.0299568511545658, -0.133738934993744, 0.161440059542656, 32161, 31389, 23436, NaN
1473555756.08, -0.0246031880378723, -0.132702887058258, 0.161058455705643, 32156, 31383, 23438, NaN
1473555757.08, -0.0193978752940893, -0.132201880216599, 0.161223813891411, 32153, 31382, 23429, NaN
1473555757.08, -0.0144146205857396, -0.132248640060425, 0.160946980118752, 32156, 31378, 23428, NaN
1473555758.088, -0.00971346907317638, -0.132484912872314, 0.161312222480774, 32154, 31388, 23439, NaN
1473555759.088, -0.00534173008054495, -0.132298409938812, 0.161718934774399, 32153, 31389, 23436, NaN
1473555760.088, -0.00133495009504259, -0.132092013955116, 0.161823838949203, 32157, 31384, 23422, NaN
1473555761.088, 0.00228207069449127, -0.132079258561134, 0.162656545639038, 32147, 31392, 23431, NaN
1473555761.088, 0.0054942425340414, -0.132683038711548, 0.16378527879715, 32144, 31400, 23430, NaN
1473555762.096, 0.00829514488577843, -0.132765546441078, 0.164036929607391, 32140, 31374, 23440, NaN
1473555763.096, 0.0106859924271703, -0.132945135235786, 0.164882481098175, 32149, 31394, 23438, NaN
1473555764.096, 0.0126746241003275, -0.133186399936676, 0.164895221590996, 32141, 31378, 23443, 87.2865447998047
1473555765.096, 0.0142745198681951, -0.132889747619629, 0.165547281503677, 32141, 31384, 23433, NaN
1473555766.086, 0.0139062264934182, -0.132709711790085, 0.166015848517418, 32157, 31386, 23424, NaN
1473555767.086, 0.00968389771878719, -0.133214130997658, 0.166969180107117, 32149, 31376, 23437, NaN
1473555768.086, 0.00242772721685469, -0.133099868893623, 0.167025700211525, 32141, 31378, 23447, NaN
1473555769.086, -0.00630639493465424, -0.134184405207634, 0.167381271719933, 32156, 31388, 23432, NaN
1473555770.086, -0.0146754821762443, -0.133887574076653, 0.16841433942318, 32146, 31386, 23438, NaN
1473555771.086, -0.0223460532724857, -0.133226245641708, 0.168302267789841, 32143, 31387, 23437, NaN
1473555772.086, -0.0283099040389061, -0.13333086669445, 0.168350830674171, 32152, 31386, 23433, NaN
1473555773.086, -0.0322868004441261, -0.13319206237793, 0.168025016784668, 32145, 31381, 23437, NaN
1473555774.086, -0.03489138931036, -0.133060917258263, 0.16765733063221, 32145, 31385, 23436, NaN
1473555775.086, -0.0359105467796326, -0.133094638586044, 0.168161481618881, 32140, 31386, 23427, NaN
1473555776.086, -0.0348984599113464, -0.132594972848892, 0.169257596135139, 32148, 31391, 23435, NaN
1473555777.086, -0.0322574265301228, -0.132763743400574, 0.169613152742386, 32161, 31388, 23428, NaN
1473555778.086, -0.0280108842998743, -0.131879657506943, 0.169513359665871, 32150, 31385, 23425, NaN
1473555779.086, -0.0221220348030329, -0.132065400481224, 0.169562175869942, 32159, 31386, 23424, NaN
1473555780.086, -0.0149042271077633, -0.132746130228043, 0.168912470340729, 32157, 31388, 23437, NaN
1473555781.086, -0.00744030764326453, -0.132065281271935, 0.16875758767128, 32151, 31390, 23440, NaN
1473555782.086, -0.000494035892188549, -0.132117420434952, 0.168209403753281, 32153, 31383, 23435, NaN
1473555783.086, 0.0070659308694303, -0.132148534059525, 0.169213801622391, 32146, 31385, 23439, NaN
1473555784.086, 0.0147740980610251, -0.131290927529335, 0.170130297541618, 32144, 31385, 23438, NaN
1473555785.086, 0.0227650478482246, -0.130941480398178, 0.170015186071396, 32143, 31383, 23440, NaN
1473555786.086, 0.0301507581025362, -0.130960375070572, 0.16944232583046, 32151, 31391, 23438, NaN
1473555787.086, 0.037491288036108, -0.130915135145187, 0.169645607471466, 32158, 31381, 23429, NaN
1473555788.086, 0.0438606441020966, -0.130433812737465, 0.168769896030426, 32154, 31382, 23427, NaN
1473555789.086, 0.0490618795156479, -0.13026936352253, 0.168590262532234, 32151, 31381, 23432, NaN
1473555790.086, 0.0530722104012966, -0.130735531449318, 0.168365314602852, 32146, 31382, 23446, NaN
1473555791.086, 0.0568772107362747, -0.129644736647606, 0.169240191578865, 32152, 31394, 23438, NaN
1473555792.086, 0.0603978596627712, -0.129707410931587, 0.169457003474236, 32157, 31389, 23447, NaN
1473555793.086, 0.0630750805139542, -0.129422053694725, 0.168931260704994, 32140, 31386, 23433, NaN
1473555794.086, 0.0650545954704285, -0.129868343472481, 0.167883858084679, 32145, 31388, 23428, NaN
1473555795.086, 0.0660679861903191, -0.13056392967701, 0.168439015746117, 32138, 31384, 23434, NaN
1473555796.086, 0.0660768076777458, -0.130675971508026, 0.168440252542496, 32149, 31386, 23434, NaN
1473555797.086, 0.065076932311058, -0.130998075008392, 0.168911665678024, 32159, 31386, 23425, NaN
1473555798.086, 0.0635429620742798, -0.130381867289543, 0.169549316167831, 32160, 31381, 23428, NaN
1473555799.086, 0.0599395073950291, -0.130320727825165, 0.1690893471241, 32147, 31389, 23436, NaN
1473555800.086, 0.0545576214790344, -0.130194440484047, 0.169371068477631, 32148, 31381, 23430, NaN
1473555801.086, 0.0485705994069576, -0.130010887980461, 0.169104024767876, 32143, 31386, 23434, NaN
1473555802.086, 0.0420979149639606, -0.129824072122574, 0.169234097003937, 32157, 31391, 23431, NaN
1473555803.086, 0.0350457578897476, -0.130372568964958, 0.169345021247864, 32144, 31378, 23435, NaN
1473555804.086, 0.0277324430644512, -0.130282491445541, 0.169058203697205, 32139, 31403, 23437, NaN
1473555804.086, 0.0203925371170044, -0.130089655518532, 0.169467151165009, 32155, 31384, 23431, NaN
1473555805.092, 0.0131299151107669, -0.130798742175102, 0.169322863221169, 32142, 31400, 23434, NaN
1473555806.092, 0.0064507364295423, -0.130887240171432, 0.170021250844002, 32142, 31389, 23443, NaN
1473555807.092, -3.3721633371897e-05, -0.131302639842033, 0.170642510056496, 32150, 31394, 23437, NaN
1473555808.092, -0.00703918095678091, -0.13081419467926, 0.170428484678268, 32153, 31377, 23435, NaN
1473555808.092, -0.0135307284072042, -0.130506008863449, 0.171066224575043, 32147, 31379, 23435, NaN
1473555809.098, -0.0192954428493977, -0.131351217627525, 0.170731425285339, 32162, 31375, 23436, NaN
1473555810.098, -0.0242871325463057, -0.131823897361755, 0.169981449842453, 32153, 31390, 23435, NaN
1473555811.098, -0.0289161279797554, -0.131825774908066, 0.169873237609863, 32150, 31369, 23429, NaN
1473555812.098, -0.0330065377056599, -0.132697954773903, 0.169383928179741, 32140, 31389, 23438, NaN
1473555812.098, -0.0360788628458977, -0.132634744048119, 0.16971430182457, 32149, 31405, 23437, NaN
1473555813.104, -0.0388118401169777, -0.132773280143738, 0.169210135936737, 32144, 31397, 23432, NaN
1473555814.104, -0.0407368130981922, -0.132408991456032, 0.168800547719002, 32143, 31374, 23439, NaN
1473555815.104, -0.04203275218606, -0.131203025579453, 0.169115602970123, 32148, 31390, 23428, NaN
1473555816.104, -0.0420490577816963, -0.131293565034866, 0.169270887970924, 32149, 31394, 23431, NaN
1473555816.104, -0.0420262515544891, -0.131981730461121, 0.169297441840172, 32150, 31396, 23441, NaN
1473555817.112, -0.0418487936258316, -0.131913810968399, 0.168453902006149, 32143, 31386, 23425, NaN
1473555818.112, -0.0409906208515167, -0.131879165768623, 0.167843133211136, 32142, 31393, 23422, NaN
1473555819.112, -0.0394929349422455, -0.132271781563759, 0.168867021799088, 32137, 31390, 23435, NaN